RH
2 2 2 2 2 2 2 2 2 2 2 2 2 2 2 2 2 2 2 2 3 3 3 4 4 4 5 5 6 7 8 9 9 10 10 11 11 11 10 10 11 12
2 2 2 2 2 2 2 2 2 2 2 2 2 2 2 2 2 2 2 2 2 2 3 3 3 3 4 4 5 6 7 7 8 9 9 10 10 10 10 10 10 10
2 2 2 2 2 2 2 2 2 2 2 2 2 2 2 2 2 2 2 2 2 2 2 2 2 2 3 3 4 4 5 6 7 8 8 9 9 10 10 10 10 10
2 2 2 2 2 2 2 2 2 2 2 2 2 2 2 2 2 2 2 2 2 2 2 2 2 2 2 2 3 3 4 5 6 7 7 8 9 9 10 10 10 10
2 2 2 2 2 2 2 2 2 2 2 2 2 2 2 2 2 2 2 2 2 2 2 2 2 2 2 2 2 2 3 4 5 6 6 7 8 9 9 9 10 9
2 2 2 2 2 2 2 2 2 2 2 2 2 2 2 2 2 2 2 2 2 2 2 2 2 2 2 2 2 2 2 3 4 4 5 6 7 8 8 9 9 9
2 2 2 2 2 2 2 2 2 2 2 2 2 2 2 2 2 2 2 2 2 2 2 2 2 2 2 2 2 2 2 2 3 3 4 5 5 6 7 8 8 8
1 2 2 2 2 2 2 2 2 2 2 2 2 2 2 2 2 2 2 2 2 2 2 2 2 2 2 2 2 2 2 2 2 3 3 4 4 5 6 6 7 8
1 2 2 1 2 2 2 2 2 2 2 2 2 2 2 2 2 2 2 2 2 2 2 2 2 2 2 2 2 2 2 2 2 2 2 3 3 4 4 5 6 6
2 2 2 2 2 2 2 2 2 2 2 2 2 2 2 2 2 2 2 2 2 2 2 2 2 2 2 2 2 2 2 2 2 2 2 2 3 3 4 4 5 5
2 2 2 2 2 2 2 2 2 2 2 2 2 2 2 2 2 2 2 2 2 2 2 2 2 2 2 2 2 2 2 2 2 2 2 2 2 3 3 3 4 4
2 2 2 2 2 2 2 2 2 2 2 2 2 2 2 2 2 2 2 2 2 2 2 2 2 2 2 2 2 2 2 2 2 2 2 2 2 2 3 3 3 4
2 2 2 2 2 2 2 2 2 2 2 3 3 2 2 3 2 2 2 2 2 2 2 2 2 2 2 2 2 2 2 2 2 3 3 3 3 2 3 3 3 3
2 2 2 2 2 2 2 2 2 2 2 3 3 3 3 3 3 3 2 2 2 2 2 2 2 2 2 2 2 2 2 2 2 3 3 3 3 3 3 3 3 3
2 2 2 2 2 2 2 2 2 2 3 3 3 3 3 3 3 3 3 3 3 2 2 2 2 2 2 2 2 2 2 2 2 2 3 3 3 3 3 3 3 3
2 2 2 3 3 2 2 2 2 2 2 3 3 3 3 4 4 4 3 3 3 3 3 2 2 2 2 2 2 2 2 2 2 2 2 3 3 3 3 3 3 3
2 3 3 3 3 3 3 2 3 3 3 3 3 3 3 3 4 4 4 4 4 3 3 3 3 3 2 3 3 2 2 2 2 2 2 3 3 3 3 3 3 3
2 2 3 3 3 3 3 3 3 3 3 3 3 3 3 3 3 4 4 4 4 4 4 3 3 3 3 3 3 3 3 2 2 3 2 2 3 2 3 3 3 3
3 3 2 3 3 3 3 3 3 3 3 3 3 3 3 3 3 3 3 4 4 4 4 4 4 3 3 3 3 3 3 3 3 3 2 2 3 2 2 3 2 3
3 3 3 3 3 3 3 3 3 3 3 3 3 3 3 3 3 3 3 3 3 4 4 4 4 4 4 4 4 3 3 3 3 3 3 3 3 3 2 2 2 3
3 2 3 3 2 3 3 3 3 3 3 3 3 3 4 4 3 3 3 3 3 3 4 4 4 4 4 4 4 4 4 4 3 3 3 3 3 3 3 2 3 3
3 3 3 3 3 3 3 3 3 3 3 3 3 4 4 4 4 4 4 4 4 4 4 4 4 4 4 4 4 4 4 4 4 4 3 3 3 3 3 3 3 3
3 3 3 3 3 3 3 3 3 3 3 3 3 4 4 4 4 4 4 4 4 4 4 4 4 4 4 4 4 4 4 5 5 5 4 4 3 3 3 3 3 3
3 3 2 3 3 3 3 3 3 3 3 3 3 3 3 4 4 4 4 4 4 4 4 4 4 4 4 4 4 4 4 4 4 4 4 4 4 4 3 3 3 3
2 3 3 3 3 3 3 3 3 3 3 3 3 3 3 3 3 3 4 4 4 4 4 4 4 4 4 4 4 4 4 4 4 4 4 4 4 4 4 3 4 3
2 3 3 3 3 3 3 3 3 3 3 3 3 3 3 3 3 3 3 3 3 4 3 3 3 3 4 4 4 4 4 4 4 4 4 4 4 4 4 3 3 3
Wind_Speed
60 61 62 64 66 68 70 70 71 72 74 76 79 81 84 86 88 91 94 97 100 102 104 105 106 109 113 115 118 122 125 127 128 129 130 130 131 131 130 129 128 128
58 58 59 62 64 65 66 66 67 68 69 71 73 77 80 83 85 87 89 91 94 96 99 101 103 105 108 112 114 117 121 124 126 127 128 129 129 129 129 128 127 127
56 56 58 60 61 62 62 63 63 65 66 67 69 71 75 78 81 84 86 87 89 91 94 96 98 100 104 107 111 113 116 119 122 124 126 127 128 128 128 128 127 126
54 54 56 58 59 59 60 60 61 62 63 65 66 68 70 73 76 79 82 84 86 87 89 91 93 95 98 102 106 109 111 114 117 121 123 125 126 127 128 128 128 127
52 52 54 55 56 56 57 58 59 60 61 62 64 65 67 69 71 74 77 79 82 84 85 87 88 91 93 96 100 103 105 108 113 117 120 123 124 125 126 127 128 127
50 50 51 52 53 54 55 56 57 57 59 60 61 62 64 66 68 70 72 74 77 80 82 83 85 87 89 91 94 97 100 103 108 113 116 118 121 123 124 126 127 127
48 49 49 50 50 51 52 54 55 56 57 58 59 60 61 63 65 66 68 70 72 75 78 80 81 84 85 87 89 92 94 98 102 107 111 114 117 119 121 123 125 126
45 47 48 49 49 49 50 51 52 54 55 55 56 57 59 60 61 62 64 66 68 70 73 75 77 79 81 82 84 87 90 93 97 100 104 109 112 115 118 120 122 124
43 44 46 48 48 48 49 49 50 51 52 53 54 55 56 58 59 60 61 63 64 66 68 70 72 74 77 78 80 82 85 88 92 95 98 103 107 111 114 117 119 121
40 42 44 46 47 48 48 49 49 50 50 50 52 53 55 56 57 58 59 60 62 63 65 67 69 70 72 74 76 78 80 83 86 89 93 97 101 105 109 112 115 117
38 39 40 42 44 45 46 47 48 49 48 48 49 51 53 55 57 57 58 58 59 61 62 64 66 67 69 71 73 75 77 78 81 84 87 91 95 100 104 107 110 112
35 37 38 38 40 42 44 45 46 47 47 47 47 48 50 53 55 56 57 57 58 59 60 62 63 65 66 68 69 71 73 74 76 78 81 85 89 93 97 101 105 107
33 34 35 36 37 39 40 42 43 44 45 45 45 45 46 48 51 53 55 55 56 57 58 59 61 63 64 65 66 68 69 70 72 74 76 79 82 86 90 94 98 101
32 32 33 34 35 36 37 39 41 42 43 44 43 43 43 45 47 49 51 52 53 55 56 58 59 60 62 63 64 65 66 67 69 70 72 74 77 80 83 87 91 94
31 31 31 32 34 35 36 37 38 39 41 41 42 42 42 42 44 45 47 48 50 51 53 55 57 58 60 61 61 63 64 65 67 68 69 71 73 76 78 81 85 88
30 30 30 31 32 34 35 35 36 37 38 39 39 40 40 40 42 43 44 45 46 47 48 50 53 55 57 58 59 61 62 64 65 66 68 69 71 73 75 77 80 82
30 29 29 30 32 33 33 34 35 35 35 36 37 37 38 39 40 41 42 43 44 45 45 46 48 50 52 55 57 59 61 62 63 64 66 67 69 71 73 74 76 78
30 28 28 29 30 31 31 32 33 33 34 34 34 35 36 37 39 39 40 41 42 43 44 44 45 46 47 50 54 56 58 60 61 62 64 66 68 70 72 73 75 76
29 28 28 28 28 29 30 31 31 32 33 33 33 33 34 36 37 38 39 40 41 42 43 43 44 44 45 46 49 51 54 56 58 61 63 65 67 68 70 71 73 75
28 27 28 28 27 27 28 29 30 31 31 31 31 32 34 35 36 37 37 38 39 40 41 41 42 43 44 45 46 47 49 52 55 57 60 62 64 65 67 69 70 72
28 26 26 27 26 26 26 28 29 29 29 30 30 31 32 33 35 35 36 36 36 37 38 39 39 41 43 44 45 46 47 49 51 54 56 59 61 63 65 66 68 70
26 26 25 25 25 25 24 25 26 26 27 28 28 29 30 31 33 34 35 35 36 36 36 37 37 38 40 42 43 44 45 47 50 52 55 57 59 60 62 63 65 66
25 25 24 23 23 23 23 23 23 24 24 25 26 27 29 30 31 32 33 34 35 36 36 35 35 36 38 39 40 42 43 45 48 50 53 54 55 56 58 59 60 62
24 23 22 21 21 21 20 20 20 20 21 22 24 25 27 28 30 31 32 33 34 35 35 35 35 35 37 38 39 40 41 43 46 48 50 51 52 52 53 54 56 58
22 21 20 19 18 18 18 18 18 19 20 21 22 24 25 27 28 29 31 32 33 34 35 35 35 35 36 37 37 38 39 41 43 44 46 48 49 50 51 52 53 55
20 19 18 17 17 16 16 17 18 19 20 21 22 23 24 25 26 27 28 29 30 31 32 33 33 33 34 35 35 36 37 39 41 42 43 44 45 47 48 49 50 52
Wind_Direction
266 264 263 261 260 259 258 256 255 253 252 251 250 250 249 248 247 246 245 244 244 244 244 243 242 241 241 241 240 241 241 242 243 244 245 246 246 247 247 247 247 246
267 265 263 262 260 259 259 258 257 256 254 252 250 249 249 248 248 247 246 245 244 243 243 243 241 240 240 240 239 239 239 240 241 243 244 244 245 246 247 247 247 246
267 265 264 262 261 260 259 258 257 256 255 253 251 249 249 248 248 247 247 246 245 244 243 243 242 240 239 239 239 238 238 239 240 241 242 243 244 244 245 246 246 246
266 265 264 262 261 260 259 258 256 255 254 253 251 250 249 248 247 247 247 247 246 246 244 243 242 241 240 239 238 238 238 238 238 239 240 241 242 243 243 244 245 246
267 265 263 262 262 261 259 258 256 255 253 252 251 250 249 248 247 247 246 246 246 246 246 245 243 242 241 239 238 238 237 236 236 237 238 239 240 241 242 243 244 244
269 266 264 262 261 260 259 258 256 255 253 252 251 250 249 248 247 247 246 246 246 246 246 246 244 243 242 240 239 238 237 236 235 236 237 238 239 240 241 242 243 243
270 268 266 263 261 259 258 257 256 255 254 253 251 250 249 248 247 247 246 246 246 246 246 246 245 244 243 241 240 239 238 236 235 235 236 237 237 238 239 240 241 242
270 269 267 265 262 260 258 257 256 255 254 253 252 251 250 249 247 246 246 246 246 246 246 246 245 245 245 243 241 240 238 238 237 235 235 235 236 237 238 238 239 241
270 268 266 265 263 261 260 258 256 254 254 253 253 252 251 250 248 246 245 245 244 245 245 245 245 245 245 244 243 241 239 239 238 237 235 235 235 236 237 238 238 239
270 268 265 264 263 261 260 259 257 255 254 253 252 252 251 250 249 247 246 244 244 243 243 243 244 244 244 244 243 243 241 240 239 238 237 236 236 236 236 237 238 238
271 269 267 266 265 263 260 259 258 257 255 253 251 251 250 250 249 248 247 245 244 244 243 243 243 242 242 242 242 242 242 241 240 239 238 237 237 236 236 237 237 238
273 271 270 268 266 265 263 260 258 257 256 254 252 251 250 249 249 248 247 246 245 244 244 243 243 242 241 241 240 240 240 241 240 240 239 238 238 238 238 238 238 238
276 274 272 271 268 266 265 263 261 259 257 255 254 253 252 251 249 248 248 247 246 245 245 244 243 242 242 241 240 239 239 239 239 240 239 239 239 238 238 239 239 239
281 278 275 273 272 270 267 265 263 261 259 257 255 254 253 253 251 250 248 247 246 245 245 244 244 243 242 242 241 240 239 238 238 238 238 239 239 239 238 239 239 239
285 282 278 276 274 272 269 267 266 264 262 260 257 255 254 253 253 251 250 248 246 245 245 245 244 243 242 242 241 240 239 238 237 237 237 237 238 238 238 238 238 239
288 284 281 277 274 272 270 269 267 266 264 262 259 257 255 254 253 252 251 249 248 246 245 244 244 244 243 242 241 240 239 239 238 237 236 236 236 237 237 237 238 238
291 287 282 278 275 273 271 269 268 267 266 264 261 258 256 254 253 252 252 251 250 249 247 245 244 244 243 242 241 240 239 239 238 238 237 237 237 237 237 237 237 237
292 289 284 278 275 273 272 270 268 268 266 265 263 260 257 255 253 252 252 251 251 250 249 247 246 244 243 242 241 241 240 240 239 238 238 237 237 237 237 237 237 237
293 290 285 281 276 273 271 269 267 266 265 264 263 262 259 256 254 252 250 249 249 250 249 249 248 247 245 243 242 241 241 240 240 239 238 238 238 238 238 238 238 238
294 291 287 284 280 274 270 268 266 265 265 265 264 262 261 259 258 256 254 252 250 249 249 248 248 248 247 246 244 242 241 240 240 240 239 239 239 239 238 238 238 238
295 292 288 285 281 277 272 269 267 266 266 265 265 263 262 262 261 260 259 256 254 251 249 247 246 245 245 245 244 243 242 241 240 240 239 239 239 238 238 238 238 238
295 293 289 285 282 279 275 271 269 267 266 265 264 263 262 261 260 260 259 258 257 255 252 249 247 245 244 244 243 242 242 241 241 241 240 239 238 238 238 238 238 238
295 294 291 287 284 281 277 274 271 268 265 263 262 261 260 259 258 257 256 256 256 256 255 253 250 248 246 244 243 241 240 240 240 241 242 241 240 240 239 239 239 240
299 298 296 293 288 284 280 277 273 268 264 262 261 259 258 256 255 254 254 253 253 253 253 252 250 248 246 245 243 241 240 239 239 240 241 243 243 243 242 240 239 239
304 302 301 297 292 287 282 277 272 268 264 261 259 258 257 256 255 254 253 252 251 250 250 249 248 247 246 245 243 242 241 241 241 240 240 241 242 242 243 242 241 239
307 305 302 298 294 288 282 277 272 269 267 266 265 264 262 260 257 255 253 251 250 250 250 249 248 247 246 245 244 242 240 240 241 240 240 240 240 240 241 242 242 242